Weather History for KIBM - February, 2013

Change the Weather History Date:

Friday, February 15, 2013

  Actual Average (KSNY) Record (KSNY)
Temperature  
Mean Temperature 22 °F 32 °F  
Max Temperature 32 °F 45 °F 67 °F (2011)
Min Temperature 13 °F 19 °F -18 °F (2007)
Degree Days  
Heating Degree Days 43 33  
Month to date heating degree days 516  
Since 1 July heating degree days 4173  
Cooling Degree Days 0 0  
Month to date cooling degree days 0  
Year to date cooling degree days 0  
Moisture  
Dew Point 17 °F    
Average Humidity 79    
Maximum Humidity 90    
Minimum Humidity 55    
Precipitation  
Precipitation 0.00 in 0.01 in 0.41 in (1975)
Month to date precipitation 0.13  
Year to date precipitation 0.33  
Sea Level Pressure  
Sea Level Pressure 30.22 in    
Wind  
Wind Speed 9 mph (WNW)    
Max Wind Speed 24 mph    
Max Gust Speed 31 mph    
Visibility 9 miles    
Events Snow    
T = Trace of Precipitation, MM = Missing Value Source: NWS Daily Summary

Daily Weather History Graph

Daily Weather History Graph

Search for Another Location

Airport or City:

Trip Planner

Search our weather history database for the weather conditions in past years. The results will help you decide how hot, cold, wet, or windy it might be!

Date:

Astronomy

Feb. 15, 2013 Rise Set
Actual Time 7:48 AM CST 6:29 PM CST
Civil Twilight 7:20 AM CST 6:57 PM CST
Nautical Twilight 6:48 AM CST 7:29 PM CST
Astronomical Twilight 6:16 AM CST 8:01 PM CST
Moon 10:22 AM CST (2/15) No Moon Set
Length of Visible Light 11h 36m
Length of Day
10h 40m
Waxing Crescent, 30% of the Moon is Illuminated
Feb 15
Waxing Crescent
Feb 17
First Quarter
Feb 25
Full
Mar 4
Last Quarter
Mar 11
New

Hourly Weather History & Observations

Time (CST) Temp. Windchill Dew Point Humidity Pressure Visibility Wind Dir Wind Speed Gust Speed Precip Events Conditions
12:15 AM 18.5 °F 9.3 °F 13.1 °F 79% 30.23 in 10.0 mi WNW 6.9 mph - N/A   Overcast
12:35 AM 17.6 °F 12.3 °F 13.1 °F 83% 30.23 in 10.0 mi West 3.5 mph - N/A   Overcast
12:55 AM 17.6 °F 12.3 °F 13.6 °F 84% 30.23 in 10.0 mi West 3.5 mph - N/A   Overcast
1:15 AM 18.1 °F 12.9 °F 13.8 °F 83% 30.23 in 10.0 mi West 3.5 mph - N/A   Overcast
1:35 AM 18.1 °F 10.0 °F 13.8 °F 83% 30.22 in 10.0 mi WSW 5.8 mph - N/A   Overcast
1:55 AM 17.2 °F 7.8 °F 12.9 °F 83% 30.22 in 10.0 mi WSW 6.9 mph - N/A   Overcast
2:15 AM 14.9 °F 5.0 °F 11.3 °F 86% 30.22 in 10.0 mi West 6.9 mph - N/A   Mostly Cloudy
2:55 AM 13.5 °F 3.3 °F 10.4 °F 88% 30.22 in 10.0 mi WSW 6.9 mph - N/A   Scattered Clouds
3:15 AM 15.8 °F 5.1 °F 12.2 °F 86% 30.21 in 10.0 mi West 8.1 mph - N/A   Mostly Cloudy
3:35 AM 17.1 °F 5.0 °F 13.1 °F 84% 30.21 in 10.0 mi West 10.4 mph - N/A   Overcast
3:55 AM 17.6 °F 6.4 °F 13.6 °F 84% 30.20 in 10.0 mi West 9.2 mph - N/A   Overcast
4:15 AM 17.6 °F 6.4 °F 13.6 °F 84% 30.20 in 10.0 mi West 9.2 mph - N/A   Overcast
4:35 AM 17.6 °F 6.4 °F 13.8 °F 85% 30.20 in 10.0 mi West 9.2 mph - N/A   Overcast
4:55 AM 18.5 °F 9.3 °F 14.4 °F 84% 30.21 in 10.0 mi West 6.9 mph - N/A   Overcast
5:15 AM 19.2 °F 10.2 °F 14.5 °F 82% 30.21 in 10.0 mi WNW 6.9 mph - N/A   Overcast
5:35 AM 19.8 °F 9.1 °F 14.7 °F 81% 30.21 in 7.0 mi West 9.2 mph - N/A   Overcast
5:55 AM 19.6 °F 8.9 °F 15.6 °F 85% 30.22 in 7.0 mi WNW 9.2 mph - N/A   Overcast
6:15 AM 19.4 °F 8.6 °F 16.5 °F 89% 30.22 in 10.0 mi West 9.2 mph - N/A   Overcast
6:35 AM 19.8 °F 9.9 °F 16.7 °F 88% 30.22 in 10.0 mi WNW 8.1 mph - N/A   Overcast
6:55 AM 19.4 °F 9.5 °F 16.7 °F 89% 30.22 in 10.0 mi West 8.1 mph - N/A   Mostly Cloudy
7:15 AM 17.4 °F 8.0 °F 14.7 °F 89% 30.22 in 10.0 mi West 6.9 mph - N/A   Mostly Cloudy
7:35 AM 14.9 °F 7.5 °F 12.6 °F 90% 30.21 in 10.0 mi WSW 4.6 mph - N/A   Scattered Clouds
7:55 AM 15.4 °F 4.6 °F 13.1 °F 90% 30.21 in 10.0 mi West 8.1 mph - N/A   Clear
8:15 AM 18.3 °F 7.3 °F 15.6 °F 89% 30.20 in 10.0 mi West 9.2 mph - N/A   Clear
8:35 AM 20.5 °F 8.6 °F 17.4 °F 88% 30.21 in 10.0 mi West 11.5 mph - N/A   Clear
8:55 AM 22.6 °F 12.6 °F 18.5 °F 84% 30.21 in 10.0 mi WNW 9.2 mph - N/A   Clear
9:15 AM 23.0 °F 12.4 °F 18.3 °F 82% 30.21 in 10.0 mi WNW 10.4 mph - N/A   Mostly Cloudy
9:35 AM 24.1 °F 12.5 °F 18.9 °F 80% 30.21 in 10.0 mi WNW 12.7 mph 19.6 mph N/A   Overcast
9:55 AM 25.2 °F 14.4 °F 18.1 °F 75% 30.22 in 10.0 mi WNW 11.5 mph - N/A   Overcast
10:15 AM 25.7 °F 16.4 °F 18.7 °F 75% 30.22 in 10.0 mi NW 9.2 mph - N/A   Mostly Cloudy
10:35 AM 29.3 °F 17.0 °F 15.1 °F 55% 30.23 in 10.0 mi NNW 18.4 mph 21.9 mph N/A   Mostly Cloudy
10:55 AM 28.4 °F 14.7 °F 14.2 °F 55% 30.23 in 10.0 mi NNW 21.9 mph 27.6 mph N/A   Overcast
11:15 AM 28.0 °F 14.3 °F 17.1 °F 63% 30.23 in 5.0 mi NNW 21.9 mph 29.9 mph N/A Snow Light Snow
11:55 AM 27.1 °F 12.4 °F 22.3 °F 82% 30.24 in 1.8 mi NNW 24.2 mph 28.8 mph N/A Snow Light Snow
12:15 PM 26.6 °F 13.4 °F 21.0 °F 79% 30.25 in 2.5 mi NNW 18.4 mph 27.6 mph N/A Snow Light Snow
12:35 PM 26.4 °F 13.6 °F 22.1 °F 84% 30.25 in 2.5 mi North 17.3 mph 20.7 mph N/A Snow Light Snow
12:55 PM 26.4 °F 15.5 °F 21.4 °F 81% 30.24 in 4.0 mi NNW 12.7 mph - N/A Snow Light Snow
1:15 PM 27.7 °F 15.6 °F 21.9 °F 79% 30.24 in 10.0 mi NW 16.1 mph - N/A   Overcast
1:35 PM 28.8 °F 17.0 °F 22.8 °F 78% 30.23 in 7.0 mi NW 16.1 mph - N/A   Overcast
1:55 PM 29.3 °F 16.6 °F 21.7 °F 73% 30.23 in 10.0 mi NW 19.6 mph 27.6 mph N/A   Overcast
2:15 PM 30.0 °F 17.2 °F 22.6 °F 74% 30.23 in 4.0 mi NW 20.7 mph 31.1 mph N/A Snow Light Snow
2:35 PM 31.8 °F 19.9 °F 21.2 °F 65% 30.23 in 10.0 mi NNW 19.6 mph 28.8 mph N/A   Overcast
2:55 PM 30.4 °F 17.7 °F 20.7 °F 67% 30.23 in 10.0 mi NNW 20.7 mph 27.6 mph N/A   Overcast
3:15 PM 29.8 °F 17.0 °F 21.4 °F 71% 30.24 in 7.0 mi North 20.7 mph - N/A Snow Light Snow
3:35 PM 29.3 °F 17.0 °F 19.9 °F 68% 30.25 in 10.0 mi NNW 18.4 mph 24.2 mph N/A   Overcast
3:55 PM 28.8 °F 16.6 °F 20.7 °F 72% 30.24 in 7.0 mi NNW 17.3 mph 23.0 mph N/A Snow Light Snow
4:15 PM 29.1 °F 17.5 °F 20.8 °F 71% 30.25 in 10.0 mi NNW 16.1 mph 21.9 mph N/A   Overcast
4:35 PM 28.6 °F 17.2 °F 20.3 °F 71% 30.25 in 10.0 mi NNW 15.0 mph 19.6 mph N/A   Overcast
4:55 PM 28.2 °F 16.8 °F 19.6 °F 70% 30.24 in 10.0 mi NNW 15.0 mph 19.6 mph N/A   Overcast
5:15 PM 27.9 °F 16.8 °F 18.9 °F 69% 30.24 in 10.0 mi North 13.8 mph 18.4 mph N/A   Overcast
5:35 PM 27.5 °F 18.0 °F 19.0 °F 71% 30.24 in 10.0 mi NNW 10.4 mph - N/A   Overcast
5:55 PM 27.5 °F 18.0 °F 18.9 °F 70% 30.23 in 10.0 mi North 10.4 mph - N/A   Overcast
6:15 PM 26.6 °F 19.1 °F 18.1 °F 70% 30.23 in 10.0 mi NNW 6.9 mph - N/A   Overcast
6:35 PM 26.2 °F 19.6 °F 18.0 °F 71% 30.23 in 10.0 mi NNW 5.8 mph - N/A   Overcast
6:55 PM 25.0 °F 20.7 °F 17.6 °F 74% 30.23 in 10.0 mi WNW 3.5 mph - N/A   Overcast
7:15 PM 25.2 °F 20.9 °F 18.3 °F 75% 30.23 in 10.0 mi NNW 3.5 mph - N/A   Overcast
7:35 PM 25.3 °F 21.1 °F 17.6 °F 72% 30.23 in 10.0 mi NNW 3.5 mph - N/A   Overcast
7:55 PM 25.3 °F 19.7 °F 17.6 °F 72% 30.22 in 10.0 mi NNW 4.6 mph - N/A   Overcast
8:15 PM 24.4 °F 20.1 °F 17.6 °F 75% 30.21 in 10.0 mi NNW 3.5 mph - N/A   Overcast
8:35 PM 21.9 °F 13.4 °F 16.9 °F 81% 30.22 in 10.0 mi WNW 6.9 mph - N/A   Mostly Cloudy
8:55 PM 23.0 °F 17.0 °F 17.1 °F 78% 30.21 in 10.0 mi NW 4.6 mph - N/A   Mostly Cloudy
9:15 PM 21.4 °F 16.6 °F 16.7 °F 82% 30.21 in 10.0 mi NW 3.5 mph - N/A   Scattered Clouds
9:35 PM 19.9 °F - 16.3 °F 86% 30.20 in 10.0 mi Calm Calm - N/A   Clear
9:55 PM 18.7 °F 13.5 °F 15.1 °F 86% 30.19 in 10.0 mi WNW 3.5 mph - N/A   Clear
10:15 PM 16.7 °F - 13.1 °F 86% 30.20 in 10.0 mi Calm Calm - N/A   Clear
10:35 PM 16.7 °F 7.2 °F 13.5 °F 87% 30.20 in 10.0 mi SW 6.9 mph - N/A   Mostly Cloudy
10:55 PM 18.9 °F 10.8 °F 15.6 °F 87% 30.21 in 10.0 mi WSW 5.8 mph - N/A   Overcast
11:15 PM 21.2 °F 10.9 °F 17.4 °F 85% 30.20 in 10.0 mi SW 9.2 mph - N/A   Overcast
11:35 PM 21.7 °F 10.8 °F 18.1 °F 86% 30.20 in 10.0 mi WSW 10.4 mph - N/A   Overcast
11:55 PM 23.5 °F 12.4 °F 19.2 °F 84% 30.19 in 10.0 mi WSW 11.5 mph - N/A   Overcast